loading
|

SL-8 DEB, 1590

Orbit data source: Space-Track

SL-8 DEB, 1590 is space debris in LEO originally from a launch on Sat, 18 Sep 1965 UTC launched from the Tyuratam Missile And Space Complex (TTMTR). Debris objects in space refer to the collection of defunct objects orbiting the Earth. Examples of debris include non-operational satellites, rocket bodies, and fragments generated from explosions, collisions, or faulty payload assembly.

Loading next visibility...
Loading greatness...
SL-8 DEB details
Identifier
1590, 1965-073G
Orbit
LEO
Last TLE update20 hours ago
Origin
Flag of CISRVSN (CIS)
ManufacturerUnknown
MissionSpacecraft
Bus & MotorUnknown bus, Unknown motor
MassUnknown
Launch date (UTC)
1965-09-18 (59 years ago)
Launch vehicleUnknown
Launch site
Tyuratam Missile And Space Complex (TTMTR)
Object type
Payload
Rocket body
Debris
Shape & HBRUnknown
Radar Cross SectionSmall (<0.1 m²)

Expand to show TLE details & history

TLE from 20 hours ago
0 SL-8 DEB
1 01590U 65073G   24278.20687631  .00000725  00000-0  51276-2 0  9999
2 01590  56.0867 330.0882 0175089 286.3634 110.2615 12.49448656680712
Epoch: 2024-10-04T04:57Z
Definitive object data (Epoch: 2024-10-04T04:57:54.113Z)
Latitude31.18043°
Longitude-93.88526°
Altitude1,518.624 km
Speed7.087 km/s
True Right ascension23h 35m 53s
True Declination31° 02' 35"
Sunlit
Object was in full shadow at TLE epoch
Predictive object data (real-time)
Latitude-21.7979°
Longitude75.49116°
Altitude1,449.623 km
Speed7.148 km/s
Apparent Right ascension09h 22m 03s
Apparent Declination-33° 02' 23"
Sunlit
Object is in daylight
Predictive observer data (real-time)
Local Sidereal Time19:01:22
Azimuth272.554° WNW
Elevation-61.098°
Doppler factor1
Orbital elements
Apogee1,603.974 km
Perigee1,329.268 km
Semi-major axis7,844.758 km
Eccentricity0.0175089
Inclination56.0867°
RAAN330.0882°
Arg. of periapsis286.3634°
True anomaly112.12923°
Mean anomaly110.2615°
Eccentric anomaly111.19681°
Mean motion3.12373 °/min
BSTAR0.0051276
Period115.25 mins
No data available

SL-8 DEB Visibility forecast

Observer location: 39.9160978°, -105.1181434

SL-8 DEB is not visible in the next 10 days
Span
Click to sort rows by Start time (UTC) header in descending order
Start Az.
Max El. time (UTC)
Max El. Az.
Max El.
End time (UTC)
End Az.